Home   Weather   West Kirby   Past weeks
Flag for United Kingdom

Past Weather in West Kirby, England, United Kingdom — Yesterday and Last 2 Weeks

Now
66 °F

Scattered showers. Partly sunny.


Feels Like: 66 °F
Forecast: 69 / 57 °F
Wind: 2 mph from Northwest

Location: Liverpool Airport

Current Time: Jul 16, 2019 at 7:34:40 am

Latest Report: Jul 16, 2019 at 6:50 am


Visibility: N/A

Pressure: 30.12 "Hg

Humidity: 78%

Dew Point: 59 °F

Location of West KirbyLocation

Past Weather in West Kirby — Graph

°F

West Kirby Temperature Yesterday

Maximum temperature yesterday: 75 °F (at 4:50 pm)
Minimum temperature yesterday: 54 °F (at 4:50 am)
Average temperature yesterday: 66 °F

High & Low Weather Summary for the Past Weeks

 TemperatureHumidityPressure
High75 °F (Jul 15, 4:50 pm)94% (Jul 13, 4:50 am)30.39 "Hg (Jul 13, 4:50 am)
Low52 °F (Jul 3, 4:20 am)37% (Jul 7, 1:50 pm)29.92 "Hg (Jul 6, 3:50 am)
Average62 °F65%30.16 "Hg
* Reported Jul 1 6:20 am — Jul 16 6:20 am, West Kirby. Weather by CustomWeather, © 2019

Note: Actual official high and low records may vary slightly from our data, if they occured in-between our weather recording intervals... More about our weather records

Advertising

West Kirby Weather History for the Previous 24 Hours

Scroll right to see more
 ConditionsComfort  
Time TempWeatherWind HumidityBarometerVisibility
6:20 am
Tue, Jul 16
64 °FPassing clouds.5 mph83%30.09 "HgN/A
5:50 am64 °FPassing clouds.3 mph88%30.09 "HgN/A
5:20 am64 °FSunny.2 mph88%30.09 "Hg10 mi
4:50 am64 °FClear.1 mph88%30.09 "Hg10 mi
4:20 am64 °FClear.1 mph88%30.09 "Hg10 mi
3:50 am64 °FClear.1 mph83%30.09 "Hg10 mi
3:20 am64 °FClear.No wind88%30.12 "Hg10 mi
2:50 am64 °FClear.3 mph83%30.12 "Hg10 mi
2:20 am64 °FClear.3 mph88%30.12 "Hg10 mi
1:50 am64 °FClear.3 mph78%30.12 "Hg10 mi
1:20 am66 °FClear.2 mph78%30.12 "Hg10 mi
12:50 am63 °FClear.3 mph83%30.12 "Hg10 mi
12:20 am66 °FClear.5 mph73%30.12 "Hg10 mi
11:50 pm
Mon, Jul 15
66 °FClear.3 mph73%30.12 "Hg10 mi
11:20 pm68 °FClear.3 mph69%30.12 "Hg10 mi
10:50 pm68 °FClear.2 mph69%30.15 "Hg10 mi
10:20 pm68 °FPassing clouds.5 mph69%30.12 "HgN/A
9:50 pm68 °FClear.6 mph69%30.12 "Hg10 mi
9:20 pm70 °FSunny.6 mph64%30.12 "Hg10 mi
8:50 pm70 °FSunny.7 mph60%30.12 "Hg10 mi
8:20 pm72 °FSunny.9 mph57%30.12 "Hg10 mi
7:50 pm72 °FSunny.8 mph57%30.12 "Hg10 mi
7:20 pm72 °FSunny.10 mph57%30.12 "Hg10 mi
6:50 pm75 °FPassing clouds.9 mph47%30.12 "HgN/A
6:20 pm75 °FPassing clouds.8 mph50%30.12 "HgN/A
5:50 pm73 °FPassing clouds.5 mph53%30.12 "HgN/A
5:20 pm73 °FScattered clouds.6 mph53%30.12 "HgN/A
4:50 pm75 °FScattered clouds.7 mph50%30.15 "HgN/A
4:20 pm73 °FSunny.6 mph53%30.15 "Hg10 mi
3:50 pm73 °FPassing clouds.7 mph57%30.15 "HgN/A
3:20 pm73 °FPassing clouds.6 mph57%30.15 "HgN/A
2:50 pm72 °FSunny.3 mph57%30.15 "Hg10 mi
2:20 pm73 °FPassing clouds.6 mph53%30.15 "HgN/A
1:50 pm73 °FPassing clouds.6 mph57%30.18 "HgN/A
1:20 pm73 °FPassing clouds.6 mph61%30.18 "HgN/A
12:50 pm73 °FPassing clouds.6 mph61%30.18 "HgN/A
12:20 pm72 °FPassing clouds.6 mph61%30.18 "HgN/A
11:50 am70 °FPassing clouds.7 mph64%30.18 "HgN/A
11:20 am70 °FPassing clouds.7 mph69%30.18 "HgN/A
10:50 am68 °FPassing clouds.7 mph73%30.18 "HgN/A
10:20 am66 °FPassing clouds.9 mph73%30.21 "HgN/A
9:50 am66 °FPassing clouds.9 mph73%30.21 "HgN/A
9:20 am64 °FPassing clouds.9 mph78%30.21 "HgN/A
8:50 am63 °FPassing clouds.9 mph77%30.21 "HgN/A
8:20 am61 °FSunny.10 mph77%30.21 "Hg10 mi
7:50 am61 °FPassing clouds.8 mph83%30.21 "HgN/A
7:20 am57 °FPassing clouds.6 mph94%30.21 "HgN/A
Weather by CustomWeather, © 2019

See weather overview

LIVE PARTIAL LUNAR ECLIPSE – Watch the eclipse as it happens